| time (UTC) | temp F | wind direction | speed knots | gust knots | rain 1hr in | rain 24hr in | rain mn in | humidity % | barometer mb |
| 20260906175005 | 98 | 190 | 0.9 | 2.6 | 0.00 | 0.00 | 0.00 | 45 | 1011.7 |
| 20260906173505 | 98 | 138 | 0.9 | 2.6 | 0.00 | 0.00 | 0.00 | 47 | 1012.1 |
| 20260906173005 | 97 | 234 | 0.9 | 2.6 | 0.00 | 0.00 | 0.00 | 46 | 1012.2 |
| 20260906172505 | 97 | 234 | 0.9 | 2.6 | 0.00 | 0.00 | 0.00 | 47 | 1012.2 |
| 20260906172005 | 97 | 234 | 0.9 | 4.3 | 0.00 | 0.00 | 0.00 | 48 | 1012.3 |
| 20260906171505 | 97 | 136 | 1.7 | 4.3 | 0.00 | 0.00 | 0.00 | 47 | 1012.4 |
| 20260906171005 | 97 | 147 | 0.9 | 1.7 | 0.00 | 0.00 | 0.00 | 49 | 1012.4 |
| 20260906170505 | 97 | 148 | 0.9 | 1.7 | 0.00 | 0.00 | 0.00 | 48 | 1012.6 |
| 20260906170005 | 97 | 148 | 0.9 | 2.6 | 0.00 | 0.00 | 0.00 | 48 | 1012.6 |
| 20260906165505 | 96 | 148 | 1.7 | 2.6 | 0.00 | 0.00 | 0.00 | 48 | 1012.6 |
| 20260906164505 | 96 | 142 | 0.9 | 2.6 | 0.00 | 0.00 | 0.00 | 51 | 1012.7 |
| 20260906164006 | 96 | 138 | 0.9 | 2.6 | 0.00 | 0.00 | 0.00 | 50 | 1012.7 |
| 20260906163505 | 96 | 129 | 0.9 | 2.6 | 0.00 | 0.00 | 0.00 | 51 | 1012.8 |
| 20260906163005 | 96 | 130 | 0.9 | 2.6 | 0.00 | 0.00 | 0.00 | 51 | 1012.7 |
| 20260906162505 | 95 | 130 | 0.9 | 2.6 | 0.00 | 0.00 | 0.00 | 52 | 1012.8 |
| 20260906162005 | 95 | 119 | 0.9 | 4.3 | 0.00 | 0.00 | 0.00 | 53 | 1012.8 |
| 20260906161505 | 94 | 121 | 1.7 | 4.3 | 0.00 | 0.00 | 0.00 | 53 | 1012.7 |
| 20260906161005 | 94 | 124 | 0.9 | 2.6 | 0.00 | 0.00 | 0.00 | 53 | 1012.7 |
| 20260906160505 | 94 | 117 | 1.7 | 2.6 | 0.00 | 0.00 | 0.00 | 53 | 1012.7 |
| 20260906160005 | 94 | 127 | 0.9 | 2.6 | 0.00 | 0.00 | 0.00 | 55 | 1012.7 |
| 20260906155505 | 93 | 119 | 0.9 | 2.6 | 0.00 | 0.00 | 0.00 | 56 | 1012.6 |
| 20260906155005 | 93 | 119 | 1.7 | 2.6 | 0.00 | 0.00 | 0.00 | 56 | 1012.5 |
| 20260906154505 | 93 | 118 | 0.9 | 2.6 | 0.00 | 0.00 | 0.00 | 56 | 1012.5 |
| 20260906153505 | 92 | 122 | 0.9 | 2.6 | 0.00 | 0.00 | 0.00 | 57 | 1012.5 |
| 20260906153005 | 92 | 116 | 0.9 | 1.7 | 0.00 | 0.00 | 0.00 | 58 | 1012.5 |
| 20260906152505 | 92 | 116 | 0.9 | 2.6 | 0.00 | 0.00 | 0.00 | 59 | 1012.6 |
| 20260906152005 | 91 | 116 | 0.9 | 2.6 | 0.00 | 0.00 | 0.00 | 58 | 1012.6 |
| 20260906151504 | 91 | 119 | 0.9 | 2.6 | 0.00 | 0.00 | 0.00 | 60 | 1012.7 |
| 20260906151005 | 91 | 122 | 0.9 | 2.6 | 0.00 | 0.00 | 0.00 | 60 | 1012.6 |
| 20260906150505 | 90 | 119 | 0.9 | 2.6 | 0.00 | 0.00 | 0.00 | 61 | 1012.6 |
| 20260906150004 | 90 | 119 | 0.9 | 2.6 | 0.00 | 0.00 | 0.00 | 61 | 1012.6 |
| 20260906145505 | 90 | 115 | 0.9 | 2.6 | 0.00 | 0.00 | 0.00 | 62 | 1012.6 |
| 20260906145005 | 90 | 116 | 0.9 | 2.6 | 0.00 | 0.00 | 0.00 | 62 | 1012.7 |
| 20260906144505 | 89 | 113 | 0.9 | 2.6 | 0.00 | 0.00 | 0.00 | 62 | 1012.7 |
| 20260906143505 | 88 | 112 | 0.9 | 2.6 | 0.00 | 0.00 | 0.00 | 63 | 1012.7 |
| 20260906142504 | 87 | 113 | 0.0 | 2.6 | 0.00 | 0.00 | 0.00 | 64 | 1012.7 |
| 20260906142005 | 87 | 113 | 1.7 | 2.6 | 0.00 | 0.00 | 0.00 | 65 | 1012.6 |
| 20260906141505 | 86 | 113 | 0.9 | 1.7 | 0.00 | 0.00 | 0.00 | 66 | 1012.6 |
| 20260906141005 | 85 | 105 | 0.0 | 4.3 | 0.00 | 0.00 | 0.00 | 67 | 1012.6 |
| 20260906140505 | 85 | 105 | 1.7 | 4.3 | 0.00 | 0.00 | 0.00 | 67 | 1012.5 |
| 20260906140005 | 85 | 122 | 0.9 | 6.1 | 0.00 | 0.00 | 0.00 | 67 | 1012.6 |
| 20260906135505 | 84 | 126 | 0.9 | 6.1 | 0.00 | 0.00 | 0.00 | 67 | 1012.5 |
| 20260906135005 | 85 | 111 | 1.7 | 5.2 | 0.00 | 0.00 | 0.00 | 67 | 1012.5 |
| 20260906134505 | 85 | 125 | 0.9 | 2.6 | 0.00 | 0.00 | 0.00 | 67 | 1012.5 |
| 20260906133505 | 84 | 127 | 0.9 | 2.6 | 0.00 | 0.00 | 0.00 | 68 | 1012.4 |
| 20260906133005 | 83 | 128 | 0.0 | 2.6 | 0.00 | 0.00 | 0.00 | 69 | 1012.4 |
| 20260906132504 | 83 | 128 | 0.9 | 2.6 | 0.00 | 0.00 | 0.00 | 70 | 1012.3 |
| 20260906132005 | 82 | 127 | 0.9 | 1.7 | 0.00 | 0.00 | 0.00 | 70 | 1012.3 |
| 20260906131005 | 81 | 127 | 0.0 | 2.6 | 0.00 | 0.00 | 0.00 | 72 | 1012.2 |
| 20260906130004 | 80 | 127 | 0.9 | 1.7 | 0.00 | 0.00 | 0.00 | 73 | 1011.9 |
| 20260906125508 | 80 | 128 | 0.9 | 1.7 | 0.00 | 0.00 | 0.00 | 74 | 1011.9 |
| 20260906125005 | 79 | 132 | 0.0 | 0.9 | 0.00 | 0.00 | 0.00 | 75 | 1011.8 |
| 20260906124505 | 79 | 132 | 0.0 | 0.9 | 0.00 | 0.00 | 0.00 | 75 | 1011.8 |
| 20260906124005 | 78 | 132 | 0.0 | 0.9 | 0.00 | 0.00 | 0.00 | 76 | 1011.7 |
| 20260906123005 | 78 | 132 | 0.0 | 0.9 | 0.00 | 0.00 | 0.00 | 76 | 1011.6 |
| 20260906122505 | 78 | 132 | 0.0 | 0.9 | 0.00 | 0.00 | 0.00 | 77 | 1011.5 |
| 20260906122004 | 78 | 132 | 0.0 | 0.9 | 0.00 | 0.00 | 0.00 | 76 | 1011.4 |
| 20260906121504 | 78 | 132 | 0.0 | 0.9 | 0.00 | 0.00 | 0.00 | 76 | 1011.4 |
| 20260906120505 | 78 | 132 | 0.0 | 0.0 | 0.00 | 0.00 | 0.00 | 76 | 1011.4 |
| 20260906120004 | 78 | 132 | 0.0 | 0.0 | 0.00 | 0.00 | 0.00 | 76 | 1011.4 |
| 20260906115504 | 78 | 132 | 0.0 | 0.0 | 0.00 | 0.00 | 0.00 | 76 | 1011.3 |
| 20260906115005 | 78 | 132 | 0.0 | 0.9 | 0.00 | 0.00 | 0.00 | 75 | 1011.4 |
| 20260906114004 | 78 | 132 | 0.0 | 1.7 | 0.00 | 0.00 | 0.00 | 75 | 1011.3 |
| 20260906113005 | 78 | 132 | 0.0 | 1.7 | 0.00 | 0.00 | 0.00 | 75 | 1011.3 |
| 20260906112504 | 78 | 131 | 0.0 | 0.9 | 0.00 | 0.00 | 0.00 | 75 | 1011.3 |
| 20260906112004 | 79 | 130 | 0.0 | 1.7 | 0.00 | 0.00 | 0.00 | 74 | 1011.4 |
| 20260906111005 | 79 | 130 | 0.9 | 2.6 | 0.00 | 0.00 | 0.00 | 74 | 1011.3 |
| 20260906110004 | 79 | 130 | 0.0 | 2.6 | 0.00 | 0.00 | 0.00 | 74 | 1011.2 |
| 20260906105504 | 79 | 130 | 0.9 | 1.7 | 0.00 | 0.00 | 0.00 | 74 | 1011.3 |
| 20260906105005 | 79 | 130 | 0.9 | 1.7 | 0.00 | 0.00 | 0.00 | 73 | 1011.3 |
| 20260906104505 | 79 | 130 | 0.0 | 0.9 | 0.00 | 0.00 | 0.00 | 73 | 1011.2 |
| 20260906104005 | 79 | 130 | 0.0 | 0.9 | 0.00 | 0.00 | 0.00 | 73 | 1011.2 |
| 20260906103505 | 79 | 130 | 0.0 | 0.9 | 0.00 | 0.00 | 0.00 | 73 | 1011.1 |
| 20260906102505 | 79 | 130 | 0.0 | 0.9 | 0.00 | 0.00 | 0.00 | 73 | 1011.1 |
| 20260906102004 | 79 | 130 | 0.0 | 0.0 | 0.00 | 0.00 | 0.00 | 73 | 1011.1 |
| 20260906101504 | 79 | 130 | 0.0 | 0.0 | 0.00 | 0.00 | 0.00 | 74 | 1011.1 |
| 20260906101005 | 79 | 130 | 0.0 | 0.9 | 0.00 | 0.00 | 0.00 | 74 | 1011.1 |
| 20260906100505 | 79 | 130 | 0.0 | 0.9 | 0.00 | 0.00 | 0.00 | 74 | 1011.1 |
| 20260906100004 | 79 | 130 | 0.0 | 0.9 | 0.00 | 0.00 | 0.00 | 74 | 1011.0 |
| 20260906095504 | 79 | 130 | 0.0 | 0.9 | 0.00 | 0.00 | 0.00 | 73 | 1011.0 |
| 20260906095005 | 79 | 130 | 0.0 | 0.9 | 0.00 | 0.00 | 0.00 | 73 | 1010.9 |
| 20260906094005 | 79 | 130 | 0.0 | 0.0 | 0.00 | 0.00 | 0.00 | 73 | 1010.9 |
| 20260906092505 | 80 | 130 | 0.0 | 0.0 | 0.00 | 0.00 | 0.00 | 72 | 1010.9 |
| 20260906092005 | 80 | 130 | 0.0 | 0.0 | 0.00 | 0.00 | 0.00 | 72 | 1010.9 |
| 20260906091504 | 80 | 130 | 0.0 | 0.0 | 0.00 | 0.00 | 0.00 | 72 | 1010.9 |
| 20260906091004 | 80 | 130 | 0.0 | 0.9 | 0.00 | 0.00 | 0.00 | 71 | 1010.8 |
| 20260906090505 | 80 | 130 | 0.0 | 0.9 | 0.00 | 0.00 | 0.00 | 71 | 1010.8 |
| 20260906090004 | 80 | 130 | 0.0 | 1.7 | 0.00 | 0.00 | 0.00 | 71 | 1010.7 |
| 20260906085005 | 81 | 130 | 0.9 | 1.7 | 0.00 | 0.00 | 0.00 | 70 | 1010.7 |
| 20260906084505 | 81 | 130 | 0.0 | 1.7 | 0.00 | 0.00 | 0.00 | 70 | 1010.7 |
| 20260906083504 | 81 | 130 | 0.0 | 1.7 | 0.00 | 0.00 | 0.00 | 70 | 1010.5 |
| 20260906083004 | 81 | 130 | 0.0 | 0.9 | 0.00 | 0.00 | 0.00 | 70 | 1010.6 |
| 20260906082505 | 81 | 130 | 0.0 | 0.0 | 0.00 | 0.00 | 0.00 | 69 | 1010.6 |
| 20260906081504 | 81 | 130 | 0.0 | 0.0 | 0.00 | 0.00 | 0.00 | 69 | 1010.5 |
| 20260906081005 | 81 | 130 | 0.0 | 0.0 | 0.00 | 0.00 | 0.00 | 69 | 1010.5 |
| 20260906080504 | 81 | 130 | 0.0 | 0.0 | 0.00 | 0.00 | 0.00 | 69 | 1010.5 |
| 20260906080005 | 81 | 130 | 0.0 | 0.0 | 0.00 | 0.00 | 0.00 | 69 | 1010.5 |
| 20260906075505 | 81 | 130 | 0.0 | 0.0 | 0.00 | 0.00 | 0.00 | 69 | 1010.4 |
| 20260906075005 | 81 | 130 | 0.0 | 0.0 | 0.00 | 0.00 | 0.00 | 70 | 1010.4 |
| 20260906074005 | 81 | 130 | 0.0 | 0.9 | 0.00 | 0.00 | 0.00 | 69 | 1010.4 |
| 20260906073505 | 81 | 130 | 0.0 | 0.0 | 0.00 | 0.00 | 0.00 | 69 | 1010.5 |
| 20260906073005 | 81 | 130 | 0.0 | 0.0 | 0.00 | 0.00 | 0.00 | 69 | 1010.5 |
| 20260906072504 | 81 | 130 | 0.0 | 0.0 | 0.00 | 0.00 | 0.00 | 69 | 1010.5 |
| 20260906071005 | 82 | 130 | 0.0 | 0.0 | 0.00 | 0.00 | 0.00 | 68 | 1010.6 |
| 20260906070505 | 82 | 130 | 0.0 | 0.0 | 0.00 | 0.00 | 0.00 | 68 | 1010.5 |
| 20260906070005 | 82 | 130 | 0.0 | 0.0 | 0.00 | 0.00 | 0.00 | 68 | 1010.7 |
| 20260906065504 | 82 | 130 | 0.0 | 0.9 | 0.00 | 0.00 | 0.00 | 68 | 1010.6 |
| 20260906065005 | 82 | 130 | 0.0 | 0.9 | 0.00 | 0.00 | 0.00 | 67 | 1010.6 |
| 20260906064005 | 82 | 130 | 0.0 | 0.9 | 0.00 | 0.00 | 0.00 | 67 | 1010.7 |
| 20260906063505 | 83 | 130 | 0.0 | 0.9 | 0.00 | 0.00 | 0.00 | 67 | 1010.8 |
| 20260906063005 | 83 | 130 | 0.0 | 0.9 | 0.00 | 0.00 | 0.00 | 66 | 1010.7 |
| 20260906062504 | 83 | 130 | 0.0 | 0.9 | 0.00 | 0.00 | 0.00 | 66 | 1010.7 |
| 20260906062005 | 83 | 130 | 0.0 | 0.9 | 0.00 | 0.00 | 0.00 | 66 | 1010.8 |
| 20260906061505 | 83 | 130 | 0.0 | 0.9 | 0.00 | 0.00 | 0.00 | 66 | 1010.7 |
| 20260906061004 | 83 | 130 | 0.0 | 0.9 | 0.00 | 0.00 | 0.00 | 66 | 1010.8 |
| 20260906060504 | 83 | 130 | 0.0 | 0.9 | 0.00 | 0.00 | 0.00 | 66 | 1010.8 |
| 20260906060005 | 83 | 130 | 0.0 | 0.9 | 0.00 | 0.00 | 0.00 | 66 | 1010.9 |
| 20260906055505 | 83 | 130 | 0.0 | 0.9 | 0.00 | 0.00 | 0.00 | 66 | 1010.9 |
| 20260906055005 | 83 | 130 | 0.0 | 0.9 | 0.00 | 0.00 | 0.00 | 66 | 1010.9 |
| 20260906054504 | 83 | 130 | 0.0 | 0.9 | 0.00 | 0.00 | 0.00 | 66 | 1011.0 |
| 20260906054004 | 83 | 130 | 0.0 | 0.9 | 0.00 | 0.00 | 0.00 | 66 | 1011.1 |
| 20260906053504 | 83 | 130 | 0.0 | 0.9 | 0.00 | 0.00 | 0.00 | 66 | 1011.0 |
| 20260906053004 | 83 | 130 | 0.0 | 0.9 | 0.00 | 0.00 | 0.00 | 66 | 1011.1 |
| 20260906052505 | 84 | 130 | 0.0 | 0.0 | 0.00 | 0.00 | 0.00 | 65 | 1011.1 |
| 20260906052005 | 84 | 130 | 0.0 | 0.9 | 0.00 | 0.00 | 0.00 | 65 | 1011.1 |
| 20260906051504 | 84 | 130 | 0.0 | 0.9 | 0.00 | 0.00 | 0.00 | 65 | 1011.0 |
| 20260906051004 | 84 | 130 | 0.0 | 0.9 | 0.00 | 0.00 | 0.00 | 65 | 1011.0 |
| 20260906050505 | 84 | 130 | 0.0 | 0.9 | 0.00 | 0.00 | 0.00 | 65 | 1011.0 |
| 20260906045504 | 84 | 130 | 0.0 | 0.9 | 0.00 | 0.00 | 0.00 | 65 | 1010.9 |
| 20260906045004 | 84 | 130 | 0.0 | 0.9 | 0.00 | 0.00 | 0.00 | 65 | 1011.0 |
| 20260906044504 | 84 | 130 | 0.0 | 0.9 | 0.00 | 0.00 | 0.00 | 64 | 1011.0 |
| 20260906044004 | 85 | 130 | 0.0 | 0.9 | 0.00 | 0.00 | 0.00 | 64 | 1011.0 |
| 20260906043504 | 85 | 130 | 0.0 | 0.9 | 0.00 | 0.00 | 0.00 | 64 | 1011.0 |
| 20260906043005 | 85 | 130 | 0.0 | 0.9 | 0.00 | 0.00 | 0.00 | 65 | 1011.0 |
| 20260906042504 | 85 | 130 | 0.0 | 0.9 | 0.00 | 0.00 | 0.00 | 65 | 1011.0 |
| 20260906042005 | 85 | 130 | 0.0 | 0.9 | 0.00 | 0.00 | 0.00 | 65 | 1010.9 |
| 20260906041004 | 85 | 130 | 0.0 | 0.9 | 0.00 | 0.00 | 0.00 | 64 | 1010.8 |
| 20260906040004 | 86 | 130 | 0.0 | 0.9 | 0.00 | 0.00 | 0.00 | 63 | 1010.8 |
| 20260906035504 | 86 | 130 | 0.9 | 0.9 | 0.00 | 0.00 | 0.00 | 63 | 1010.8 |
| 20260906034504 | 86 | 130 | 0.0 | 0.9 | 0.00 | 0.00 | 0.00 | 62 | 1010.7 |
| 20260906034005 | 87 | 130 | 0.0 | 0.9 | 0.00 | 0.00 | 0.00 | 62 | 1010.6 |
| 20260906033504 | 87 | 130 | 0.0 | 0.9 | 0.00 | 0.00 | 0.00 | 62 | 1010.7 |
| 20260906033004 | 87 | 130 | 0.0 | 0.9 | 0.00 | 0.00 | 0.00 | 61 | 1010.6 |
| 20260906032504 | 87 | 130 | 0.0 | 1.7 | 0.00 | 0.00 | 0.00 | 61 | 1010.6 |
| 20260906032004 | 87 | 130 | 0.0 | 1.7 | 0.00 | 0.00 | 0.00 | 61 | 1010.7 |
| 20260906031504 | 87 | 130 | 0.0 | 1.7 | 0.00 | 0.00 | 0.00 | 61 | 1010.6 |
| 20260906031004 | 87 | 132 | 0.0 | 0.9 | 0.00 | 0.00 | 0.00 | 61 | 1010.6 |
| 20260906030504 | 87 | 132 | 0.0 | 0.9 | 0.00 | 0.00 | 0.00 | 61 | 1010.5 |
| 20260906030004 | 87 | 132 | 0.0 | 1.7 | 0.00 | 0.00 | 0.00 | 61 | 1010.4 |
| 20260906024504 | 88 | 129 | 0.9 | 1.7 | 0.00 | 0.00 | 0.00 | 61 | 1010.2 |
| 20260906024004 | 88 | 128 | 0.0 | 2.6 | 0.00 | 0.00 | 0.00 | 61 | 1010.2 |
| 20260906023504 | 88 | 128 | 0.0 | 2.6 | 0.00 | 0.00 | 0.00 | 60 | 1010.1 |
| 20260906022504 | 88 | 129 | 0.0 | 0.9 | 0.00 | 0.00 | 0.00 | 60 | 1009.9 |
| 20260906022004 | 88 | 129 | 0.0 | 0.9 | 0.00 | 0.00 | 0.00 | 60 | 1009.7 |
| 20260906021504 | 89 | 129 | 0.0 | 0.9 | 0.00 | 0.00 | 0.00 | 59 | 1009.6 |
| 20260906021005 | 89 | 129 | 0.0 | 0.9 | 0.00 | 0.00 | 0.00 | 59 | 1009.6 |
| 20260906020505 | 89 | 129 | 0.0 | 0.9 | 0.00 | 0.00 | 0.00 | 59 | 1009.6 |
| 20260906015504 | 89 | 129 | 0.0 | 2.6 | 0.00 | 0.00 | 0.00 | 58 | 1009.7 |
| 20260906015005 | 89 | 129 | 0.9 | 2.6 | 0.00 | 0.00 | 0.00 | 58 | 1009.4 |
| 20260906014504 | 90 | 132 | 0.9 | 2.6 | 0.00 | 0.00 | 0.00 | 57 | 1009.4 |
| 20260906013504 | 90 | 132 | 0.0 | 1.7 | 0.00 | 0.00 | 0.00 | 57 | 1009.2 |
| 20260906013004 | 90 | 132 | 0.0 | 1.7 | 0.00 | 0.00 | 0.00 | 56 | 1009.2 |
| 20260906012504 | 90 | 132 | 0.9 | 1.7 | 0.00 | 0.00 | 0.00 | 56 | 1009.2 |
| 20260906012005 | 91 | 132 | 0.0 | 1.7 | 0.00 | 0.00 | 0.00 | 56 | 1009.1 |
| 20260906011504 | 91 | 132 | 0.0 | 2.6 | 0.00 | 0.00 | 0.00 | 55 | 1009.1 |
| 20260906011004 | 91 | 132 | 0.9 | 2.6 | 0.00 | 0.00 | 0.00 | 54 | 1009.1 |
| 20260906010505 | 92 | 130 | 0.9 | 2.6 | 0.00 | 0.00 | 0.00 | 54 | 1009.0 |
| 20260906010005 | 92 | 132 | 0.9 | 2.6 | 0.00 | 0.00 | 0.00 | 54 | 1009.1 |
| 20260906005505 | 92 | 132 | 0.9 | 1.7 | 0.00 | 0.00 | 0.00 | 53 | 1009.1 |
| 20260906005005 | 92 | 132 | 0.9 | 2.6 | 0.00 | 0.00 | 0.00 | 53 | 1009.1 |
| 20260906004505 | 93 | 132 | 0.9 | 2.6 | 0.00 | 0.00 | 0.00 | 52 | 1009.1 |
| 20260906004005 | 93 | 132 | 0.0 | 1.7 | 0.00 | 0.00 | 0.00 | 52 | 1009.0 |
| 20260906003005 | 94 | 134 | 0.9 | 2.6 | 0.00 | 0.00 | 0.00 | 50 | 1009.0 |
| 20260906002505 | 95 | 116 | 1.7 | 2.6 | 0.00 | 0.00 | 0.00 | 48 | 1009.0 |
| 20260906001506 | 96 | 97 | 0.9 | 2.6 | 0.00 | 0.00 | 0.00 | 44 | 1009.1 |
| 20260906001005 | 97 | 91 | 0.0 | 0.9 | 0.00 | 0.00 | 0.00 | 41 | 1009.0 |
| 20260906000506 | 97 | 91 | 0.0 | 0.9 | 0.00 | 0.00 | 0.00 | 40 | 1009.0 |
| 20260906000005 | 98 | 91 | 0.0 | 0.9 | 0.00 | 0.00 | 0.00 | 38 | 1009.0 |
| 20260905235506 | 99 | 91 | 0.0 | 0.9 | 0.00 | 0.00 | 0.00 | 38 | 1009.0 |
| 20260905235005 | 99 | 91 | 0.0 | 1.7 | 0.00 | 0.00 | 0.00 | 39 | 1009.0 |
| 20260905234506 | 99 | 91 | 0.0 | 1.7 | 0.00 | 0.00 | 0.00 | 38 | 1009.0 |
| 20260905234006 | 100 | 91 | 0.0 | 0.9 | 0.00 | 0.00 | 0.00 | 36 | 1009.0 |
| 20260905233505 | 101 | 91 | 0.0 | 1.7 | 0.00 | 0.00 | 0.00 | 36 | 1009.0 |
| 20260905233006 | 102 | 91 | 0.9 | 1.7 | 0.00 | 0.00 | 0.00 | 36 | 1008.9 |
| 20260905232505 | 102 | 91 | 0.9 | 1.7 | 0.00 | 0.00 | 0.00 | 36 | 1008.9 |
| 20260905232006 | 102 | 91 | 0.0 | 1.7 | 0.00 | 0.00 | 0.00 | 35 | 1008.8 |
| 20260905231505 | 103 | 90 | 0.0 | 1.7 | 0.00 | 0.00 | 0.00 | 35 | 1008.9 |
| 20260905231005 | 103 | 90 | 0.0 | 1.7 | 0.00 | 0.00 | 0.00 | 37 | 1008.8 |
| 20260905230505 | 102 | 90 | 0.0 | 2.6 | 0.00 | 0.00 | 0.00 | 36 | 1008.8 |
| 20260905225505 | 102 | 0 | 0.0 | 1.7 | 0.00 | 0.00 | 0.00 | 36 | 1008.8 |
| 20260905225005 | 100 | 0 | 0.9 | 2.6 | 0.00 | 0.00 | 0.00 | 37 | 1008.7 |
| 20260905224505 | 100 | 0 | 1.7 | 2.6 | 0.00 | 0.00 | 0.00 | 36 | 1008.8 |
| 20260905224005 | 100 | 252 | 1.7 | 2.6 | 0.00 | 0.00 | 0.00 | 37 | 1008.8 |
| 20260905223505 | 101 | 243 | 0.9 | 2.6 | 0.00 | 0.00 | 0.00 | 37 | 1008.8 |
| 20260905223005 | 100 | 241 | 0.0 | 0.9 | 0.00 | 0.00 | 0.00 | 36 | 1008.9 |
| 20260905222505 | 99 | 241 | 0.0 | 2.6 | 0.00 | 0.00 | 0.00 | 38 | 1009.0 |
| 20260905222005 | 99 | 241 | 1.7 | 2.6 | 0.00 | 0.00 | 0.00 | 38 | 1008.9 |
| 20260905221505 | 99 | 241 | 0.9 | 2.6 | 0.00 | 0.00 | 0.00 | 38 | 1009.0 |
| 20260905221005 | 99 | 246 | 0.9 | 2.6 | 0.00 | 0.00 | 0.00 | 37 | 1009.1 |
| 20260905220505 | 100 | 245 | 1.7 | 2.6 | 0.00 | 0.00 | 0.00 | 36 | 1009.2 |
| 20260905215505 | 101 | 230 | 1.7 | 6.1 | 0.00 | 0.00 | 0.00 | 37 | 1009.2 |
| 20260905215005 | 100 | 230 | 1.7 | 6.1 | 0.00 | 0.00 | 0.00 | 38 | 1009.3 |
| 20260905214505 | 100 | 233 | 1.7 | 5.2 | 0.00 | 0.00 | 0.00 | 37 | 1009.3 |
| 20260905214005 | 100 | 310 | 1.7 | 5.2 | 0.00 | 0.00 | 0.00 | 38 | 1009.3 |
| 20260905213505 | 99 | 275 | 1.7 | 4.3 | 0.00 | 0.00 | 0.00 | 38 | 1009.5 |
| 20260905213005 | 100 | 294 | 1.7 | 5.2 | 0.00 | 0.00 | 0.00 | 36 | 1009.5 |
| 20260905212505 | 101 | 295 | 1.7 | 5.2 | 0.00 | 0.00 | 0.00 | 37 | 1009.5 |
| 20260905211505 | 102 | 288 | 0.9 | 2.6 | 0.00 | 0.00 | 0.00 | 36 | 1009.5 |
| 20260905211005 | 102 | 280 | 0.9 | 2.6 | 0.00 | 0.00 | 0.00 | 35 | 1009.5 |
| 20260905210506 | 101 | 277 | 0.0 | 4.3 | 0.00 | 0.00 | 0.00 | 36 | 1009.5 |
| 20260905210005 | 100 | 298 | 1.7 | 4.3 | 0.00 | 0.00 | 0.00 | 36 | 1009.5 |
| 20260905205504 | 100 | 0 | 2.6 | 6.1 | 0.00 | 0.00 | 0.00 | 35 | 1009.8 |
| 20260905205005 | 101 | 309 | 3.5 | 6.1 | 0.00 | 0.00 | 0.00 | 35 | 1009.9 |
| 20260905204505 | 102 | 255 | 0.9 | 5.2 | 0.00 | 0.00 | 0.00 | 37 | 1010.1 |
| 20260905204005 | 102 | 242 | 1.7 | 4.3 | 0.00 | 0.00 | 0.00 | 34 | 1010.0 |
| 20260905203505 | 102 | 262 | 0.9 | 5.2 | 0.00 | 0.00 | 0.00 | 36 | 1010.1 |
| 20260905202505 | 103 | 217 | 0.9 | 2.6 | 0.00 | 0.00 | 0.00 | 35 | 1010.2 |
| 20260905202005 | 103 | 216 | 0.9 | 2.6 | 0.00 | 0.00 | 0.00 | 35 | 1010.3 |
| 20260905200505 | 101 | 217 | 1.7 | 4.3 | 0.00 | 0.00 | 0.00 | 37 | 1010.5 |
| 20260905200005 | 100 | 128 | 1.7 | 2.6 | 0.00 | 0.00 | 0.00 | 39 | 1010.5 |
| 20260905195505 | 100 | 246 | 0.0 | 2.6 | 0.00 | 0.00 | 0.00 | 40 | 1010.5 |
| 20260905195005 | 100 | 246 | 0.9 | 4.3 | 0.00 | 0.00 | 0.00 | 38 | 1010.6 |
| 20260905194505 | 101 | 323 | 2.6 | 4.3 | 0.00 | 0.00 | 0.00 | 37 | 1010.7 |
| 20260905194004 | 101 | 119 | 0.9 | 2.6 | 0.00 | 0.00 | 0.00 | 38 | 1010.7 |
| 20260905193505 | 101 | 116 | 1.7 | 4.3 | 0.00 | 0.00 | 0.00 | 38 | 1010.8 |
| 20260905192505 | 99 | 127 | 0.0 | 2.6 | 0.00 | 0.00 | 0.00 | 41 | 1010.8 |
| 20260905191505 | 98 | 127 | 1.7 | 5.2 | 0.00 | 0.00 | 0.00 | 41 | 1010.9 |
| 20260905191005 | 97 | 65 | 0.9 | 2.6 | 0.00 | 0.00 | 0.00 | 43 | 1010.9 |
| 20260905190505 | 96 | 65 | 1.7 | 2.6 | 0.00 | 0.00 | 0.00 | 43 | 1011.0 |
| 20260905190005 | 96 | 5 | 1.7 | 2.6 | 0.00 | 0.00 | 0.00 | 43 | 1011.0 |
| 20260905185005 | 96 | 247 | 1.7 | 2.6 | 0.00 | 0.00 | 0.00 | 42 | 1011.2 |
| 20260905184505 | 97 | 243 | 0.9 | 5.2 | 0.00 | 0.00 | 0.00 | 42 | 1011.3 |
| 20260905184005 | 97 | 242 | 1.7 | 8.7 | 0.00 | 0.00 | 0.00 | 41 | 1011.4 |
| 20260905183505 | 97 | 237 | 2.6 | 8.7 | 0.00 | 0.00 | 0.00 | 42 | 1011.4 |
| 20260905183005 | 97 | 231 | 1.7 | 5.2 | 0.00 | 0.00 | 0.00 | 42 | 1011.4 |
| 20260905182504 | 97 | 288 | 0.9 | 5.2 | 0.00 | 0.00 | 0.00 | 44 | 1011.5 |
| 20260905182005 | 96 | 262 | 0.9 | 4.3 | 0.00 | 0.00 | 0.00 | 44 | 1011.6 |
| 20260905181505 | 97 | 270 | 2.6 | 4.3 | 0.00 | 0.00 | 0.00 | 42 | 1011.7 |
| 20260905181005 | 98 | 283 | 2.6 | 4.3 | 0.00 | 0.00 | 0.00 | 43 | 1011.7 |
| 20260905180505 | 97 | 261 | 0.9 | 4.3 | 0.00 | 0.00 | 0.00 | 43 | 1011.7 |
| 20260905180004 | 96 | 247 | 1.7 | 6.1 | 0.00 | 0.00 | 0.00 | 44 | 1011.9 |
| 20260905175505 | 96 | 321 | 3.5 | 7.0 | 0.00 | 0.00 | 0.00 | 43 | 1011.8 |